Location: Brachstadt
(48.6975°N, 10.6755°E)
Time: 09:25:40
(UTC+00:00)

SPOT 3 Rocket - Pass Details

Date: 18 September 2020
Orbit: 780 x 794 km, 98.7° (Epoch: 27 October)

Event Time Altitude Azimuth Distance (km) Brightness Sun altitude
Exits shadow 20:03:37 35° 205° (SSW) 1,243 4.4 -25.6°
Maximum altitude 20:05:27 52° 260° (W) 970 4.2 -25.8°
Drops below altitude 10° 20:10:29 10° 336° (NNW) 2,345 6.8 -26.5°
Sets 20:12:53 0° 342° (NNW) 3,279 7.6 -26.8°
